Flag for Germany Weather past 2 weeks in Nettetal, North Rhine-Westphalia, Germany

Now
52 °F

Sunny.


Feels Like: 48 °F
Forecast: 41 / 63 °F
Wind: 10 mph from Northwest

Location: Monchengladbach Airport

Current Time: May 26, 2015 at 10:03:22 AM

Latest Report: May 26, 2015 at 9:20 AM


Visibility: 10 mi

Pressure: 30.12 "Hg

Humidity: 67%

Dew point: 41 °F

Location of NettetalLocation

Historic Weather in Nettetal — Graph

°F

Nettetal temperature yesterday

Maximum temperature yesterday: 61 °F (at 3:20 PM)
Minimum temperature yesterday: 52 °F (at 11:20 AM)
Average temperature yesterday: 57 °F

Past Weeks' High & Low Weather Summary

 TemperatureHumidityPressure
High81 °F (May 11, 4:50 PM)100% (May 16, 2:50 PM)30.33 "Hg (May 16, 2:50 PM)
Low41 °F (May 21, 6:20 AM)30% (May 11, 4:50 PM)29.65 "Hg (May 18, 6:20 PM)
Average60 °F58%30.06 "Hg
* Reported May 11 8:20 AM — May 26 8:50 AM, Nettetal, Weather by CustomWeather, © 2015

Note: Actual official high and low records may vary slightly from our data, if they occured in-between our weather recording intervals... More about our weather records

Advertising

Nettetal weather history for previous 24 hours

 ConditionsComfort  
Time TempWeatherWind HumidityBarometerVisibility
8:50 AM
Tue, May 26
52 °FPassing clouds.8 mph72%30.12 "HgN/A
8:20 AM52 °FSunny.8 mph77%30.12 "Hg10 mi
7:50 AM50 °FSunny.7 mph82%30.09 "Hg10 mi
7:50 PM
Mon, May 25
59 °FPassing clouds.7 mph55%29.98 "HgN/A
7:20 PM59 °FPassing clouds.8 mph59%29.98 "HgN/A
6:50 PM59 °FPartly cloudy.10 mph59%29.98 "HgN/A
6:20 PM61 °FPartly cloudy.8 mph55%29.98 "HgN/A
5:50 PM59 °FPassing clouds.10 mph55%29.98 "HgN/A
5:20 PM61 °FPassing clouds.12 mph55%29.98 "HgN/A
4:50 PM61 °FPassing clouds.8 mph55%29.98 "HgN/A
4:20 PM61 °FPassing clouds.7 mph59%29.98 "HgN/A
3:50 PM61 °FPassing clouds.6 mph59%29.98 "HgN/A
3:20 PM61 °FPassing clouds.6 mph63%29.98 "HgN/A
2:50 PM59 °FPassing clouds.6 mph63%29.98 "HgN/A
2:20 PM57 °FPassing clouds.9 mph67%29.98 "HgN/A
1:50 PM57 °FPassing clouds.7 mph63%29.98 "HgN/A
1:20 PM57 °FPartly sunny.7 mph72%29.98 "HgN/A
12:50 PM57 °FPartly sunny.6 mph77%29.98 "HgN/A
12:20 PM55 °FPartly sunny.5 mph77%29.98 "HgN/A
11:50 AM54 °FPartly sunny.7 mph88%29.98 "HgN/A
11:20 AM52 °FScattered clouds.8 mph100%29.98 "HgN/A
10:50 AM54 °FDrizzle. Fog.2 mph100%29.98 "Hg1 mi
10:20 AM54 °FDrizzle. Fog.3 mph100%29.98 "Hg1 mi
Weather by CustomWeather, © 2015

See weather overviewHow to use our weather pages